Location: Ebersheim
(48.3033°N, 7.4991°E)
Time: 17:05:49
(UTC+00:00)

Cosmos 2369 Rocket - Pass Details

Date: 27 February 2020
Orbit: 827 x 854 km, 71.0° (Epoch: 28 March)

Event Time Altitude Azimuth Distance (km) Brightness Sun altitude
Rises 18:54:31 0° 245° (WSW) 3,394 6.3 -18.1°
Reaches altitude 10° 18:57:21 10° 258° (WSW) 2,467 5.7 -18.6°
Maximum altitude 19:02:04 26° 315° (NW) 1,602 4.2 -19.3°
Drops below altitude 10° 19:06:50 10° 11° (NNE) 2,491 4.6 -20.1°
Sets 19:09:43 0° 24° (NNE) 3,433 5.2 -20.6°
